Time,TemperatureF,DewpointF,PressureIn,WindDirection,WindDirectionDegrees,WindSpeedMPH,WindSpeedGustMPH,Humidity,HourlyPrecipIn,Conditions,Clouds,dailyrainin,SoftwareType,DateUTC
2013-06-04 00:00:00,70.1,56.5,29.89,NW,315,3.0,10.0,62,0.00,OVC,OVC,0.00,WeatherDisplay:10.31,2013-06-04 04:00:00,
2013-06-04 00:05:00,69.9,55.8,29.89,WNW,299,6.0,10.0,61,0.00,OVC,OVC,0.00,WeatherDisplay:10.31,2013-06-04 04:05:00,
2013-06-04 00:10:00,69.8,55.7,29.89,WNW,302,2.0,10.0,61,0.00,OVC,OVC,0.00,WeatherDisplay:10.31,2013-06-04 04:10:00,
2013-06-04 00:15:00,69.4,54.9,29.89,NW,307,2.0,7.0,60,0.00,OVC,OVC,0.00,WeatherDisplay:10.31,2013-06-04 04:15:00,
2013-06-04 00:20:00,69.3,54.8,29.89,NW,314,6.0,10.0,60,0.00,OVC,OVC,0.00,WeatherDisplay:10.31,2013-06-04 04:20:00,
2013-06-04 00:25:00,69.1,54.6,29.89,NW,317,5.0,8.0,60,0.00,OVC,OVC,0.00,WeatherDisplay:10.31,2013-06-04 04:25:00,
2013-06-04 00:30:00,68.9,54.4,29.89,NW,316,5.0,12.0,60,0.00,OVC,OVC,0.00,WeatherDisplay:10.31,2013-06-04 04:30:00,
2013-06-04 00:40:00,68.6,53.7,29.89,NW,308,2.0,13.0,59,0.00,OVC,OVC,0.00,WeatherDisplay:10.31,2013-06-04 04:40:00,
2013-06-04 00:50:00,68.3,54.3,29.89,NW,313,3.0,6.0,61,0.00,OVC,OVC,0.00,WeatherDisplay:10.31,2013-06-04 04:50:00,
2013-06-04 00:55:00,68.1,54.1,29.90,NW,316,2.0,6.0,61,0.00,OVC,OVC,0.00,WeatherDisplay:10.31,2013-06-04 04:55:00,
2013-06-04 01:00:00,67.9,54.4,29.89,NW,321,5.0,9.0,62,0.00,OVC,OVC,0.00,WeatherDisplay:10.31,2013-06-04 05:00:00,
2013-06-04 01:05:00,67.8,54.3,29.89,NW,319,3.0,10.0,62,0.00,OVC,OVC,0.00,WeatherDisplay:10.31,2013-06-04 05:05:00,
2013-06-04 01:10:00,67.6,54.1,29.89,NW,313,3.0,12.0,62,0.00,OVC,OVC,0.00,WeatherDisplay:10.31,2013-06-04 05:10:00,
2013-06-04 01:20:00,67.3,53.8,29.90,NW,306,6.0,12.0,62,0.00,OVC,OVC,0.00,WeatherDisplay:10.31,2013-06-04 05:20:00,
2013-06-04 01:30:00,66.9,53.9,29.90,NW,306,3.0,12.0,63,0.00,OVC,OVC,0.00,WeatherDisplay:10.31,2013-06-04 05:30:00,
2013-06-04 01:40:00,66.6,53.6,29.90,WNW,300,2.0,12.0,63,0.00,OVC,OVC,0.00,WeatherDisplay:10.31,2013-06-04 05:40:00,
2013-06-04 01:50:00,66.3,53.3,29.90,NW,307,7.0,12.0,63,0.00,OVC,OVC,0.00,WeatherDisplay:10.31,2013-06-04 05:50:00,
2013-06-04 02:00:00,66.0,53.5,29.90,NW,305,2.0,12.0,64,0.00,OVC,OVC,0.00,WeatherDisplay:10.31,2013-06-04 06:00:00,
2013-06-04 02:05:00,65.8,53.7,29.90,WNW,300,2.0,13.0,65,0.00,OVC,OVC,0.00,WeatherDisplay:10.31,2013-06-04 06:05:00,
2013-06-04 02:10:00,65.5,53.5,29.91,NW,307,2.0,10.0,65,0.00,OVC,OVC,0.00,WeatherDisplay:10.31,2013-06-04 06:10:00,
2013-06-04 02:20:00,65.2,53.6,29.91,WNW,301,5.0,9.0,66,0.00,OVC,OVC,0.00,WeatherDisplay:10.31,2013-06-04 06:20:00,
2013-06-04 02:30:00,65.0,53.4,29.91,WNW,299,3.0,8.0,66,0.00,OVC,OVC,0.00,WeatherDisplay:10.31,2013-06-04 06:30:00,
2013-06-04 02:40:00,64.7,53.5,29.91,NW,310,3.0,12.0,67,0.00,OVC,OVC,0.00,WeatherDisplay:10.31,2013-06-04 06:40:00,
2013-06-04 02:50:00,64.3,53.1,29.91,NW,310,5.0,10.0,67,0.00,OVC,OVC,0.00,WeatherDisplay:10.31,2013-06-04 06:50:00,
2013-06-04 03:00:00,64.0,52.8,29.91,WNW,301,2.0,10.0,67,0.00,OVC,OVC,0.00,WeatherDisplay:10.31,2013-06-04 07:00:00,
2013-06-04 03:05:00,64.0,52.8,29.91,WNW,300,3.0,12.0,67,0.00,OVC,OVC,0.00,WeatherDisplay:10.31,2013-06-04 07:05:00,
2013-06-04 03:10:00,63.9,52.7,29.91,WNW,301,3.0,9.0,67,0.00,OVC,OVC,0.00,WeatherDisplay:10.31,2013-06-04 07:10:00,
2013-06-04 03:20:00,63.5,52.4,29.91,NW,304,3.0,12.0,67,0.00,OVC,OVC,0.00,WeatherDisplay:10.31,2013-06-04 07:20:00,
2013-06-04 03:30:00,63.4,52.2,29.91,NW,306,3.0,12.0,67,0.00,OVC,OVC,0.00,WeatherDisplay:10.31,2013-06-04 07:30:00,
2013-06-04 03:40:00,63.2,52.1,29.92,NW,306,3.0,10.0,67,0.00,OVC,OVC,0.00,WeatherDisplay:10.31,2013-06-04 07:40:00,
2013-06-04 03:50:00,63.1,52.0,29.92,NW,313,6.0,12.0,67,0.00,OVC,OVC,0.00,WeatherDisplay:10.31,2013-06-04 07:50:00,
2013-06-04 04:00:00,62.9,51.4,29.92,NW,314,2.0,12.0,66,0.00,OVC,OVC,0.00,WeatherDisplay:10.31,2013-06-04 08:00:00,
2013-06-04 04:05:00,62.7,51.6,29.92,NW,315,3.0,9.0,67,0.00,OVC,OVC,0.00,WeatherDisplay:10.31,2013-06-04 08:05:00,
2013-06-04 04:10:00,62.7,51.6,29.92,NW,306,3.0,8.0,67,0.00,OVC,OVC,0.00,WeatherDisplay:10.31,2013-06-04 08:10:00,
2013-06-04 04:20:00,62.4,51.3,29.92,NW,304,2.0,6.0,67,0.00,OVC,OVC,0.00,WeatherDisplay:10.31,2013-06-04 08:20:00,
2013-06-04 04:25:00,62.3,51.6,29.92,NW,313,1.0,10.0,68,0.00,OVC,OVC,0.00,WeatherDisplay:10.31,2013-06-04 08:25:00,
2013-06-04 04:30:00,62.1,51.4,29.93,NW,306,2.0,10.0,68,0.00,OVC,OVC,0.00,WeatherDisplay:10.31,2013-06-04 08:30:00,
2013-06-04 04:40:00,61.8,50.7,29.93,NW,310,5.0,12.0,67,0.00,OVC,OVC,0.00,WeatherDisplay:10.31,2013-06-04 08:40:00,
2013-06-04 04:50:00,61.6,50.5,29.93,NW,316,5.0,12.0,67,0.00,OVC,OVC,0.00,WeatherDisplay:10.31,2013-06-04 08:50:00,
2013-06-04 05:00:00,61.5,50.4,29.93,NW,312,5.0,9.0,67,0.00,OVC,OVC,0.00,WeatherDisplay:10.31,2013-06-04 09:00:00,
2013-06-04 05:10:00,61.3,50.2,29.94,NW,313,1.0,10.0,67,0.00,OVC,OVC,0.00,WeatherDisplay:10.31,2013-06-04 09:10:00,
2013-06-04 05:20:00,61.0,50.0,29.94,NW,324,2.0,12.0,67,0.00,OVC,OVC,0.00,WeatherDisplay:10.31,2013-06-04 09:20:00,
2013-06-04 05:30:00,60.9,49.8,29.94,NW,320,2.0,7.0,67,0.00,OVC,OVC,0.00,WeatherDisplay:10.31,2013-06-04 09:30:00,
2013-06-04 05:40:00,60.5,49.5,29.95,NNW,330,2.0,6.0,67,0.00,OVC,OVC,0.00,WeatherDisplay:10.31,2013-06-04 09:40:00,
2013-06-04 05:50:00,60.4,49.0,29.95,NNW,341,3.0,8.0,66,0.00,FEW,FEW,0.00,WeatherDisplay:10.31,2013-06-04 09:50:00,
2013-06-04 06:00:00,60.2,48.8,29.96,NW,324,2.0,6.0,66,0.00,BKN,BKN,0.00,WeatherDisplay:10.31,2013-06-04 10:00:00,
2013-06-04 06:05:00,60.2,48.8,29.96,NNW,336,6.0,9.0,66,0.00,BKN,BKN,0.00,WeatherDisplay:10.31,2013-06-04 10:05:00,
2013-06-04 06:10:00,60.1,48.7,29.97,NNW,347,3.0,5.0,66,0.00,BKN,BKN,0.00,WeatherDisplay:10.31,2013-06-04 10:10:00,
2013-06-04 06:20:00,60.1,48.7,29.97,NNW,341,3.0,9.0,66,0.00,BKN,BKN,0.00,WeatherDisplay:10.31,2013-06-04 10:20:00,
2013-06-04 06:30:00,59.9,48.5,29.98,NNW,340,3.0,6.0,66,0.00,OVC,OVC,0.00,WeatherDisplay:10.31,2013-06-04 10:30:00,
2013-06-04 06:40:00,59.9,48.5,29.99,NNW,340,5.0,9.0,66,0.00,OVC,OVC,0.00,WeatherDisplay:10.31,2013-06-04 10:40:00,
2013-06-04 06:50:00,59.9,48.5,29.99,NNW,335,6.0,10.0,66,0.00,OVC,OVC,0.00,WeatherDisplay:10.31,2013-06-04 10:50:00,
2013-06-04 07:00:00,59.9,48.1,30.00,NNW,330,5.0,8.0,65,0.00,OVC,OVC,0.00,WeatherDisplay:10.31,2013-06-04 11:00:00,
2013-06-04 07:05:00,59.9,48.1,30.00,NNW,329,5.0,10.0,65,0.00,OVC,OVC,0.00,WeatherDisplay:10.31,2013-06-04 11:05:00,
2013-06-04 07:10:00,59.9,48.1,30.00,NNW,338,6.0,12.0,65,0.00,OVC,OVC,0.00,WeatherDisplay:10.31,2013-06-04 11:10:00,
2013-06-04 07:20:00,60.1,47.5,30.00,NNW,336,6.0,10.0,63,0.00,CLR,CLR,0.00,WeatherDisplay:10.31,2013-06-04 11:20:00,
2013-06-04 07:30:00,60.2,46.7,30.01,NNW,345,2.0,12.0,61,0.00,CLR,CLR,0.00,WeatherDisplay:10.31,2013-06-04 11:30:00,
2013-06-04 07:40:00,60.7,47.2,30.01,North,360,6.0,10.0,61,0.00,CLR,CLR,0.00,WeatherDisplay:10.31,2013-06-04 11:40:00,
2013-06-04 07:50:00,61.3,45.0,30.01,North,357,3.0,16.0,55,0.00,CLR,CLR,0.00,WeatherDisplay:10.31,2013-06-04 11:50:00,
2013-06-04 07:55:00,61.6,44.8,30.01,North,350,3.0,9.0,54,0.00,CLR,CLR,0.00,WeatherDisplay:10.31,2013-06-04 11:55:00,
2013-06-04 08:05:00,62.1,44.3,30.02,NNW,343,6.0,15.0,52,0.00,CLR,CLR,0.00,WeatherDisplay:10.31,2013-06-04 12:05:00,
2013-06-04 08:10:00,62.4,43.5,30.02,NNW,344,8.0,13.0,50,0.00,CLR,CLR,0.00,WeatherDisplay:10.31,2013-06-04 12:10:00,
2013-06-04 08:20:00,62.9,44.0,30.03,North,360,5.0,12.0,50,0.00,CLR,CLR,0.00,WeatherDisplay:10.31,2013-06-04 12:20:00,
2013-06-04 08:30:00,63.2,40.9,30.03,North,349,8.0,18.0,44,0.00,CLR,CLR,0.00,WeatherDisplay:10.31,2013-06-04 12:30:00,
2013-06-04 08:40:00,63.5,41.8,30.03,North,4,6.0,10.0,45,0.00,CLR,CLR,0.00,WeatherDisplay:10.31,2013-06-04 12:40:00,
2013-06-04 08:50:00,64.2,41.8,30.03,North,354,3.0,12.0,44,0.00,CLR,CLR,0.00,WeatherDisplay:10.31,2013-06-04 12:50:00,
2013-06-04 09:00:00,64.8,39.9,30.04,North,350,8.0,12.0,40,0.00,CLR,CLR,0.00,WeatherDisplay:10.31,2013-06-04 13:00:00,
2013-06-04 09:05:00,65.3,40.3,30.04,NNW,336,6.0,12.0,40,0.00,CLR,CLR,0.00,WeatherDisplay:10.31,2013-06-04 13:05:00,
2013-06-04 09:10:00,65.5,40.5,30.04,NNW,346,7.0,12.0,40,0.00,CLR,CLR,0.00,WeatherDisplay:10.31,2013-06-04 13:10:00,
2013-06-04 09:20:00,66.1,41.1,30.05,North,351,3.0,10.0,40,0.00,CLR,CLR,0.00,WeatherDisplay:10.31,2013-06-04 13:20:00,
2013-06-04 09:30:00,66.7,40.2,30.05,North,353,3.0,10.0,38,0.00,CLR,CLR,0.00,WeatherDisplay:10.31,2013-06-04 13:30:00,
2013-06-04 09:40:00,66.9,40.5,30.05,NNE,12,6.0,12.0,38,0.00,CLR,CLR,0.00,WeatherDisplay:10.31,2013-06-04 13:40:00,
2013-06-04 09:50:00,67.8,41.9,30.05,NNE,24,3.0,6.0,39,0.00,FEW,FEW,0.00,WeatherDisplay:10.31,2013-06-04 13:50:00,
2013-06-04 10:00:00,68.4,41.1,30.05,North,2,5.0,10.0,37,0.00,FEW,FEW,0.00,WeatherDisplay:10.31,2013-06-04 14:00:00,
2013-06-04 10:05:00,68.7,40.0,30.05,North,8,3.0,10.0,35,0.00,FEW,FEW,0.00,WeatherDisplay:10.31,2013-06-04 14:05:00,
2013-06-04 10:10:00,68.8,40.0,30.05,North,10,6.0,12.0,35,0.00,FEW,FEW,0.00,WeatherDisplay:10.31,2013-06-04 14:10:00,
2013-06-04 10:20:00,69.5,40.6,30.05,North,6,3.0,8.0,35,0.00,FEW,FEW,0.00,WeatherDisplay:10.31,2013-06-04 14:20:00,
2013-06-04 10:30:00,70.1,41.9,30.05,NNW,348,5.0,7.0,36,0.00,FEW,FEW,0.00,WeatherDisplay:10.31,2013-06-04 14:30:00,
2013-06-04 10:40:00,70.8,41.8,30.06,North,2,8.0,12.0,35,0.00,FEW,FEW,0.00,WeatherDisplay:10.31,2013-06-04 14:40:00,
2013-06-04 10:50:00,71.2,40.6,30.06,North,353,2.0,9.0,33,0.00,FEW,FEW,0.00,WeatherDisplay:10.31,2013-06-04 14:50:00,
2013-06-04 11:00:00,71.6,39.3,30.06,NNW,334,5.0,7.0,31,0.00,FEW,FEW,0.00,WeatherDisplay:10.31,2013-06-04 15:00:00,
2013-06-04 11:05:00,71.9,40.4,30.06,NNW,348,6.0,9.0,32,0.00,FEW,FEW,0.00,WeatherDisplay:10.31,2013-06-04 15:05:00,
2013-06-04 11:10:00,71.8,39.5,30.06,NNW,340,2.0,10.0,31,0.00,FEW,FEW,0.00,WeatherDisplay:10.31,2013-06-04 15:10:00,
2013-06-04 11:20:00,72.1,38.9,30.06,NNW,331,6.0,10.0,30,0.00,FEW,FEW,0.00,WeatherDisplay:10.31,2013-06-04 15:20:00,
2013-06-04 11:30:00,72.8,39.5,30.06,NW,321,1.0,5.0,30,0.00,FEW,FEW,0.00,WeatherDisplay:10.31,2013-06-04 15:30:00,
2013-06-04 11:40:00,73.9,40.5,30.06,North,6,5.0,9.0,30,0.00,FEW,FEW,0.00,WeatherDisplay:10.31,2013-06-04 15:40:00,
2013-06-04 11:50:00,74.0,37.9,30.06,NNW,347,5.0,12.0,27,0.00,FEW,FEW,0.00,WeatherDisplay:10.31,2013-06-04 15:50:00,
2013-06-04 12:00:00,74.4,38.2,30.06,NNW,336,6.0,10.0,27,0.00,FEW,FEW,0.00,WeatherDisplay:10.31,2013-06-04 16:00:00,
2013-06-04 12:10:00,74.6,39.3,30.06,NNE,14,5.0,7.0,28,0.00,FEW,FEW,0.00,WeatherDisplay:10.31,2013-06-04 16:10:00,
2013-06-04 12:20:00,75.4,40.0,30.05,NNE,25,2.0,7.0,28,0.00,FEW,FEW,0.00,WeatherDisplay:10.31,2013-06-04 16:20:00,
2013-06-04 12:30:00,76.1,40.6,30.05,North,8,2.0,5.0,28,0.00,FEW,FEW,0.00,WeatherDisplay:10.31,2013-06-04 16:30:00,
2013-06-04 12:40:00,77.0,39.5,30.05,North,3,7.0,10.0,26,0.00,FEW,FEW,0.00,WeatherDisplay:10.31,2013-06-04 16:40:00,
2013-06-04 12:50:00,76.9,39.4,30.05,NW,310,2.0,10.0,26,0.00,FEW,FEW,0.00,WeatherDisplay:10.31,2013-06-04 16:50:00,
2013-06-04 13:00:00,77.4,40.8,30.04,North,355,2.0,6.0,27,0.00,FEW,FEW,0.00,WeatherDisplay:10.31,2013-06-04 17:00:00,
2013-06-04 13:05:00,77.6,40.0,30.04,North,2,1.0,6.0,26,0.00,FEW,FEW,0.00,WeatherDisplay:10.31,2013-06-04 17:05:00,
2013-06-04 13:10:00,77.9,40.2,30.04,North,6,2.0,9.0,26,0.00,FEW,FEW,0.00,WeatherDisplay:10.31,2013-06-04 17:10:00,
2013-06-04 13:20:00,78.6,39.8,30.03,NNW,337,1.0,3.0,25,0.00,FEW,FEW,0.00,WeatherDisplay:10.31,2013-06-04 17:20:00,
2013-06-04 13:30:00,79.2,40.3,30.03,NNW,327,3.0,9.0,25,0.00,FEW,FEW,0.00,WeatherDisplay:10.31,2013-06-04 17:30:00,
2013-06-04 13:40:00,79.6,38.6,30.03,North,352,3.0,9.0,23,0.00,FEW,FEW,0.00,WeatherDisplay:10.31,2013-06-04 17:40:00,
2013-06-04 13:50:00,79.2,39.3,30.02,WNW,292,3.0,7.0,24,0.00,FEW,FEW,0.00,WeatherDisplay:10.31,2013-06-04 17:50:00,
2013-06-04 14:00:00,79.9,40.9,30.02,WNW,293,3.0,5.0,25,0.00,FEW,FEW,0.00,WeatherDisplay:10.31,2013-06-04 18:00:00,
2013-06-04 14:05:00,80.3,40.2,30.02,WNW,293,1.0,9.0,24,0.00,FEW,FEW,0.00,WeatherDisplay:10.31,2013-06-04 18:05:00,
2013-06-04 14:10:00,80.6,41.5,30.01,WNW,285,2.0,5.0,25,0.00,FEW,FEW,0.00,WeatherDisplay:10.31,2013-06-04 18:10:00,
2013-06-04 14:20:00,81.1,38.7,30.01,NW,326,6.0,8.0,22,0.00,FEW,FEW,0.00,WeatherDisplay:10.31,2013-06-04 18:20:00,
2013-06-04 14:30:00,81.6,40.2,30.01,NNW,346,0.0,9.0,23,0.00,FEW,FEW,0.00,WeatherDisplay:10.31,2013-06-04 18:30:00,
2013-06-04 14:40:00,82.5,40.9,30.01,NNW,345,3.0,6.0,23,0.00,FEW,FEW,0.00,WeatherDisplay:10.31,2013-06-04 18:40:00,
2013-06-04 14:50:00,82.4,40.9,30.01,NE,46,1.0,2.0,23,0.00,FEW,FEW,0.00,WeatherDisplay:10.31,2013-06-04 18:50:00,
2013-06-04 15:00:00,83.1,41.5,30.01,NNW,337,5.0,6.0,23,0.00,FEW,FEW,0.00,WeatherDisplay:10.31,2013-06-04 19:00:00,
2013-06-04 15:05:00,82.3,39.7,30.01,West,272,5.0,12.0,22,0.00,FEW,FEW,0.00,WeatherDisplay:10.31,2013-06-04 19:05:00,
2013-06-04 15:10:00,81.2,41.0,30.02,WSW,250,6.0,12.0,24,0.00,FEW,FEW,0.00,WeatherDisplay:10.31,2013-06-04 19:10:00,
2013-06-04 15:20:00,80.3,40.2,30.02,SW,231,1.0,3.0,24,0.00,FEW,FEW,0.00,WeatherDisplay:10.31,2013-06-04 19:20:00,
2013-06-04 15:30:00,80.5,40.4,30.01,SSW,208,3.0,12.0,24,0.00,FEW,FEW,0.00,WeatherDisplay:10.31,2013-06-04 19:30:00,
2013-06-04 15:40:00,80.0,41.0,30.01,WSW,245,6.0,9.0,25,0.00,FEW,FEW,0.00,WeatherDisplay:10.31,2013-06-04 19:40:00,
2013-06-04 15:45:00,80.1,41.1,30.01,WSW,256,1.0,7.0,25,0.00,FEW,FEW,0.00,WeatherDisplay:10.31,2013-06-04 19:45:00,
2013-06-04 15:50:00,80.5,40.4,30.01,West,281,6.0,9.0,24,0.00,FEW,FEW,0.00,WeatherDisplay:10.31,2013-06-04 19:50:00,
2013-06-04 16:00:00,80.7,40.5,30.01,West,271,5.0,10.0,24,0.00,FEW,FEW,0.00,WeatherDisplay:10.31,2013-06-04 20:00:00,
2013-06-04 16:05:00,80.9,41.8,30.01,WNW,288,3.0,12.0,25,0.00,FEW,FEW,0.00,WeatherDisplay:10.31,2013-06-04 20:05:00,
2013-06-04 16:10:00,81.2,41.0,30.02,West,274,1.0,8.0,24,0.00,FEW,FEW,0.00,WeatherDisplay:10.31,2013-06-04 20:10:00,
2013-06-04 16:20:00,81.2,42.0,30.01,West,277,2.0,6.0,25,0.00,FEW,FEW,0.00,WeatherDisplay:10.31,2013-06-04 20:20:00,
2013-06-04 16:30:00,81.4,42.2,30.01,WNW,291,1.0,7.0,25,0.00,FEW,FEW,0.00,WeatherDisplay:10.31,2013-06-04 20:30:00,
2013-06-04 16:40:00,82.4,43.0,30.01,WNW,296,2.0,7.0,25,0.00,FEW,FEW,0.00,WeatherDisplay:10.31,2013-06-04 20:40:00,
2013-06-04 16:50:00,81.5,41.2,30.01,SW,218,7.0,8.0,24,0.00,CLR,CLR,0.00,WeatherDisplay:10.31,2013-06-04 20:50:00,
2013-06-04 17:00:00,80.0,41.0,30.01,SW,232,8.0,14.0,25,0.00,CLR,CLR,0.00,WeatherDisplay:10.31,2013-06-04 21:00:00,
2013-06-04 17:05:00,79.2,43.3,30.01,SW,233,1.0,7.0,28,0.00,CLR,CLR,0.00,WeatherDisplay:10.31,2013-06-04 21:05:00,
2013-06-04 17:10:00,79.4,42.5,30.01,West,259,3.0,9.0,27,0.00,CLR,CLR,0.00,WeatherDisplay:10.31,2013-06-04 21:10:00,
2013-06-04 17:15:00,79.8,42.8,30.01,WNW,287,6.0,12.0,27,0.00,CLR,CLR,0.00,WeatherDisplay:10.31,2013-06-04 21:15:00,
2013-06-04 17:20:00,79.6,41.7,30.01,West,272,2.0,10.0,26,0.00,CLR,CLR,0.00,WeatherDisplay:10.31,2013-06-04 21:20:00,
2013-06-04 17:30:00,79.0,41.2,30.01,WSW,244,5.0,14.0,26,0.00,CLR,CLR,0.00,WeatherDisplay:10.31,2013-06-04 21:30:00,
2013-06-04 17:40:00,78.6,41.8,30.00,WSW,250,7.0,10.0,27,0.00,FEW,FEW,0.00,WeatherDisplay:10.31,2013-06-04 21:40:00,
2013-06-04 17:50:00,78.6,41.8,30.00,SW,231,2.0,3.0,27,0.00,CLR,CLR,0.00,WeatherDisplay:10.31,2013-06-04 21:50:00,
2013-06-04 18:00:00,79.2,41.3,30.00,WNW,295,1.0,3.0,26,0.00,CLR,CLR,0.00,WeatherDisplay:10.31,2013-06-04 22:00:00,
2013-06-04 18:05:00,79.6,42.7,30.00,NW,311,3.0,5.0,27,0.00,CLR,CLR,0.00,WeatherDisplay:10.31,2013-06-04 22:05:00,
2013-06-04 18:10:00,79.8,41.9,30.00,NW,320,1.0,9.0,26,0.00,CLR,CLR,0.00,WeatherDisplay:10.31,2013-06-04 22:10:00,
2013-06-04 18:20:00,79.8,42.8,30.01,NNW,333,1.0,5.0,27,0.00,CLR,CLR,0.00,WeatherDisplay:10.31,2013-06-04 22:20:00,
2013-06-04 18:30:00,79.8,42.8,30.01,NW,308,0.0,3.0,27,0.00,CLR,CLR,0.00,WeatherDisplay:10.31,2013-06-04 22:30:00,
2013-06-04 18:40:00,79.4,42.5,30.01,North,349,2.0,8.0,27,0.00,FEW,FEW,0.00,WeatherDisplay:10.31,2013-06-04 22:40:00,
2013-06-04 18:50:00,78.6,42.8,30.01,North,349,5.0,10.0,28,0.00,CLR,CLR,0.00,WeatherDisplay:10.31,2013-06-04 22:50:00,
2013-06-04 19:00:00,77.9,43.1,30.01,North,353,3.0,8.0,29,0.00,CLR,CLR,0.00,WeatherDisplay:10.31,2013-06-04 23:00:00,
2013-06-04 19:05:00,77.7,43.8,30.01,NNW,342,5.0,10.0,30,0.00,CLR,CLR,0.00,WeatherDisplay:10.31,2013-06-04 23:05:00,
2013-06-04 19:10:00,77.4,44.4,30.01,NNW,341,1.0,9.0,31,0.00,CLR,CLR,0.00,WeatherDisplay:10.31,2013-06-04 23:10:00,
2013-06-04 19:20:00,77.0,43.2,30.01,NNW,327,3.0,6.0,30,0.00,CLR,CLR,0.00,WeatherDisplay:10.31,2013-06-04 23:20:00,
2013-06-04 19:30:00,76.5,43.6,30.01,North,360,2.0,8.0,31,0.00,FEW,FEW,0.00,WeatherDisplay:10.31,2013-06-04 23:30:00,
2013-06-04 19:40:00,76.0,43.2,30.02,North,355,3.0,12.0,31,0.00,BKN,BKN,0.00,WeatherDisplay:10.31,2013-06-04 23:40:00,
2013-06-04 19:50:00,75.4,43.5,30.02,NNW,343,2.0,8.0,32,0.00,SCT,SCT,0.00,WeatherDisplay:10.31,2013-06-04 23:50:00,
2013-06-04 20:00:00,74.9,44.6,30.02,North,352,1.0,3.0,34,0.00,SCT,SCT,0.00,WeatherDisplay:10.31,2013-06-05 00:00:00,
2013-06-04 20:05:00,74.7,45.2,30.02,North,350,2.0,5.0,35,0.00,SCT,SCT,0.00,WeatherDisplay:10.31,2013-06-05 00:05:00,
2013-06-04 20:10:00,74.6,45.1,30.03,NNW,343,1.0,3.0,35,0.00,BKN,BKN,0.00,WeatherDisplay:10.31,2013-06-05 00:10:00,
2013-06-04 20:20:00,74.2,45.5,30.03,NNW,337,0.0,2.0,36,0.00,SCT,SCT,0.00,WeatherDisplay:10.31,2013-06-05 00:20:00,
2013-06-04 20:30:00,73.7,45.8,30.03,NNW,337,0.0,2.0,37,0.00,OVC,OVC,0.00,WeatherDisplay:10.31,2013-06-05 00:30:00,
2013-06-04 20:35:00,73.5,45.6,30.03,NNW,337,0.0,2.0,37,0.00,OVC,OVC,0.00,WeatherDisplay:10.31,2013-06-05 00:35:00,
2013-06-04 20:40:00,73.2,46.1,30.03,NNW,337,0.0,3.0,38,0.00,OVC,OVC,0.00,WeatherDisplay:10.31,2013-06-05 00:40:00,
2013-06-04 20:50:00,72.7,46.3,30.03,NNW,337,0.0,2.0,39,0.00,OVC,OVC,0.00,WeatherDisplay:10.31,2013-06-05 00:50:00,
2013-06-04 21:00:00,72.1,46.4,30.03,NNW,337,0.0,1.0,40,0.00,OVC,OVC,0.00,WeatherDisplay:10.31,2013-06-05 01:00:00,
2013-06-04 21:05:00,72.0,47.0,30.03,NNW,337,0.0,2.0,41,0.00,OVC,OVC,0.00,WeatherDisplay:10.31,2013-06-05 01:05:00,
2013-06-04 21:10:00,71.8,46.8,30.03,NNW,337,0.0,1.0,41,0.00,OVC,OVC,0.00,WeatherDisplay:10.31,2013-06-05 01:10:00,
2013-06-04 21:20:00,71.3,47.0,30.04,NNW,337,0.0,1.0,42,0.00,OVC,OVC,0.00,WeatherDisplay:10.31,2013-06-05 01:20:00,
2013-06-04 21:30:00,70.9,47.9,30.04,NNW,337,0.0,1.0,44,0.00,OVC,OVC,0.00,WeatherDisplay:10.31,2013-06-05 01:30:00,
2013-06-04 21:40:00,70.4,47.5,30.05,NNW,337,0.0,1.0,44,0.00,OVC,OVC,0.00,WeatherDisplay:10.31,2013-06-05 01:40:00,
2013-06-04 21:50:00,70.1,47.8,30.05,NNW,337,0.0,1.0,45,0.00,OVC,OVC,0.00,WeatherDisplay:10.31,2013-06-05 01:50:00,
2013-06-04 22:00:00,69.8,48.1,30.05,NNW,337,0.0,1.0,46,0.00,OVC,OVC,0.00,WeatherDisplay:10.31,2013-06-05 02:00:00,
2013-06-04 22:05:00,69.4,47.1,30.05,NNW,337,0.0,1.0,45,0.00,OVC,OVC,0.00,WeatherDisplay:10.31,2013-06-05 02:05:00,
2013-06-04 22:10:00,69.3,47.0,30.05,NNW,337,0.0,1.0,45,0.00,OVC,OVC,0.00,WeatherDisplay:10.31,2013-06-05 02:10:00,
2013-06-04 22:20:00,68.8,47.2,30.06,NNW,337,0.0,0.0,46,0.00,OVC,OVC,0.00,WeatherDisplay:10.31,2013-06-05 02:20:00,
2013-06-04 22:30:00,68.3,46.7,30.06,NNW,337,0.0,1.0,46,0.00,OVC,OVC,0.00,WeatherDisplay:10.31,2013-06-05 02:30:00,
2013-06-04 22:40:00,67.9,46.3,30.06,NNW,337,0.0,1.0,46,0.00,OVC,OVC,0.00,WeatherDisplay:10.31,2013-06-05 02:40:00,
2013-06-04 22:45:00,67.8,46.8,30.06,NNW,337,0.0,1.0,47,0.00,OVC,OVC,0.00,WeatherDisplay:10.31,2013-06-05 02:45:00,
2013-06-04 22:50:00,67.6,46.6,30.06,NNW,337,0.0,1.0,47,0.00,OVC,OVC,0.00,WeatherDisplay:10.31,2013-06-05 02:50:00,
2013-06-04 23:00:00,67.3,46.9,30.06,NNW,337,0.0,0.0,48,0.00,OVC,OVC,0.00,WeatherDisplay:10.31,2013-06-05 03:00:00,
2013-06-04 23:05:00,67.3,46.3,30.06,NNW,337,0.0,1.0,47,0.00,OVC,OVC,0.00,WeatherDisplay:10.31,2013-06-05 03:05:00,
2013-06-04 23:10:00,67.1,46.2,30.06,NNW,337,0.0,1.0,47,0.00,OVC,OVC,0.00,WeatherDisplay:10.31,2013-06-05 03:10:00,
2013-06-04 23:20:00,66.9,46.0,30.06,NNW,337,0.0,0.0,47,0.00,OVC,OVC,0.00,WeatherDisplay:10.31,2013-06-05 03:20:00,
2013-06-04 23:30:00,66.8,46.5,30.06,NNW,337,0.0,1.0,48,0.00,OVC,OVC,0.00,WeatherDisplay:10.31,2013-06-05 03:30:00,
2013-06-04 23:40:00,66.6,46.8,30.06,NNW,337,0.0,1.0,49,0.00,OVC,OVC,0.00,WeatherDisplay:10.31,2013-06-05 03:40:00,
2013-06-04 23:50:00,66.4,46.1,30.06,NNW,337,0.0,1.0,48,0.00,OVC,OVC,0.00,WeatherDisplay:10.31,2013-06-05 03:50:00,